Theta_e
303 303 303 303 303 303 302 302 302 302 302 302 303 303 303 303 304 305 307 308 307 310 324 330 330 331 333 333 333 330 323 327 329
305 305 304 304 303 303 303 302 303 302 302 303 303 303 303 303 303 303 303 305 307 308 308 312 322 327 329 331 333 333 333 329 325
305 304 304 303 303 302 302 302 302 302 302 302 302 302 302 302 302 302 303 303 304 306 308 309 308 309 316 325 328 332 333 333 332
305 304 303 302 302 302 301 301 301 300 300 300 301 301 301 300 301 301 301 302 302 302 303 303 305 306 307 308 311 324 330 332 332
304 303 302 301 301 301 301 300 300 300 299 299 299 299 299 299 299 299 299 299 299 300 301 301 302 303 303 304 305 307 308 323 331
304 303 302 301 301 301 300 300 299 299 299 299 298 298 298 298 298 298 298 298 298 299 301 305 306 305 303 301 302 303 304 307 310
304 304 303 301 301 300 300 299 299 299 298 298 298 297 297 297 297 297 297 296 296 298 300 302 304 307 308 310 309 303 302 303 304
304 304 303 301 301 300 299 299 299 298 298 298 297 297 297 297 297 297 296 296 296 296 296 298 300 305 307 307 309 310 310 303 302
304 304 303 302 301 300 300 299 298 298 297 297 297 296 296 296 296 296 296 296 296 296 296 296 296 298 304 306 307 308 309 309 310
304 304 303 302 300 300 299 298 297 297 296 296 296 296 296 296 296 296 296 296 295 295 295 295 295 297 301 305 306 306 308 308 309
305 304 304 302 300 298 298 297 296 296 295 296 295 296 296 295 295 294 295 295 295 294 294 294 295 300 302 304 306 307 307 308 308
305 305 303 302 298 297 295 294 294 294 294 295 295 294 294 294 294 293 293 293 292 292 292 291 293 297 298 300 302 304 306 308 309
305 304 303 300 297 295 293 293 293 293 293 294 294 293 293 293 292 292 292 292 291 290 290 291 292 293 295 297 299 301 303 304 305
305 305 302 299 295 293 292 292 292 292 292 292 293 292 292 292 292 291 291 290 289 288 288 288 289 289 290 293 295 297 299 301 304
305 304 301 298 294 292 292 292 291 291 291 291 292 292 291 290 290 290 289 288 288 288 288 287 287 286 286 288 291 293 295 297 299
304 304 301 296 293 292 291 291 291 291 291 291 291 290 290 289 289 288 289 288 287 287 287 286 286 285 285 285 286 289 292 294 296
304 303 299 295 292 290 290 290 290 291 290 288 288 287 288 288 288 288 288 287 285 286 285 284 284 284 284 285 287 289 290 292 294
304 301 297 293 291 290 289 289 289 290 289 288 286 285 285 284 287 286 287 285 284 284 284 283 284 284 284 285 285 287 290 292 294
303 299 295 291 290 289 289 289 289 288 288 288 287 286 284 284 284 284 285 284 284 283 283 283 283 283 284 285 285 287 289 291 293
301 297 292 290 289 288 289 289 289 288 288 287 286 286 285 284 283 283 284 283 284 283 283 283 282 282 283 284 285 287 289 290 292
Wind_Speed
7 7 7 6 6 6 7 7 7 7 8 8 8 8 8 8 8 9 10 9 8 9 11 14 16 12 9 9 12 14 16 16 16
7 7 7 7 7 6 7 7 7 7 7 8 8 8 8 8 8 8 9 10 11 12 14 17 19 21 21 15 13 13 14 17 19
8 8 8 8 9 8 8 9 10 10 10 10 10 10 10 9 9 9 8 9 11 12 15 18 20 22 23 25 23 19 18 17 18
12 13 13 13 12 11 11 12 12 12 12 12 12 12 12 11 10 10 9 10 12 14 16 19 21 23 24 25 27 29 25 22 21
14 14 15 15 15 14 14 14 13 14 13 13 13 12 12 12 11 10 11 10 11 13 15 18 20 22 24 26 28 29 30 32 29
13 14 15 15 15 15 15 16 16 16 16 16 17 17 16 17 17 17 17 17 17 16 16 16 17 18 19 23 27 30 33 34 34
13 14 14 14 14 14 15 16 17 17 17 17 18 19 20 20 21 21 22 22 22 21 20 20 20 20 21 22 22 25 30 34 36
12 14 15 15 16 16 17 17 18 18 18 18 19 20 21 22 23 23 24 25 26 27 26 25 24 23 23 23 24 24 25 29 34
11 14 16 17 17 17 18 18 18 18 19 21 21 21 22 23 24 26 27 28 29 31 32 32 31 28 26 25 26 26 26 28 28
12 14 17 18 19 19 19 19 19 20 20 20 21 23 23 25 26 27 28 30 31 32 33 33 34 32 31 27 27 28 27 28 28
11 15 17 19 19 20 20 20 20 20 20 20 21 23 25 27 28 30 31 32 33 34 34 34 32 27 27 28 28 30 30 29 29
12 15 18 20 21 21 20 19 20 21 22 23 25 26 27 28 29 29 30 32 33 34 35 32 30 26 27 27 28 30 29 30 30
12 16 19 21 21 21 21 21 22 23 25 27 27 28 28 28 26 29 30 29 29 32 33 34 33 33 30 29 29 30 30 32 33
12 15 19 21 21 21 21 21 24 27 29 30 30 31 30 27 26 24 28 28 34 39 40 39 37 37 35 31 31 31 31 33 31
12 15 19 21 20 20 21 22 24 27 30 31 32 31 28 25 16 24 32 34 35 33 34 34 37 38 39 40 35 33 34 34 36
13 16 19 20 20 21 22 24 26 27 30 34 38 33 32 9 10 40 30 33 31 38 35 37 35 37 38 37 36 35 36 37 37
13 16 19 19 19 19 21 23 25 26 28 30 28 18 22 5 42 22 26 30 39 37 37 38 39 38 35 32 33 33 34 35 37
14 17 19 19 19 19 20 22 23 24 24 24 21 13 11 39 14 23 28 38 35 38 37 40 39 39 36 30 32 31 30 30 33
15 17 18 18 18 18 20 20 21 22 23 23 22 20 22 17 24 21 41 36 42 31 41 39 43 41 35 30 32 30 30 31 32
16 17 18 17 17 18 19 19 19 20 21 21 22 23 24 24 24 42 41 46 47 39 36 42 42 41 35 34 32 29 33 34 33
Wind_Direction
40 29 17 8 358 351 345 337 333 331 329 321 314 311 306 296 293 286 283 280 269 254 251 258 264 263 280 285 279 275 271 268 265
49 35 25 18 10 3 354 346 345 338 329 325 323 318 310 305 296 285 278 270 266 259 255 256 255 256 257 259 261 257 266 268 267
57 45 34 30 21 12 5 357 354 348 341 334 329 324 318 312 303 296 287 278 273 267 265 269 270 269 262 262 257 253 252 251 258
49 39 32 26 22 12 7 3 3 359 354 350 344 338 330 326 320 313 298 282 271 266 265 266 269 271 273 271 265 263 260 256 251
43 35 29 21 15 8 5 2 2 358 353 349 346 342 340 334 329 325 317 304 288 277 273 270 264 264 267 267 269 267 263 261 257
40 33 27 18 11 4 359 357 355 353 349 347 345 344 340 337 334 332 327 324 320 316 309 304 299 293 279 264 264 265 265 263 261
38 30 24 15 8 2 358 356 353 347 344 343 340 337 335 333 331 329 327 325 322 318 313 310 307 305 301 297 289 265 264 264 262
32 25 18 13 6 2 358 353 348 345 342 339 336 334 333 331 329 327 324 319 315 310 308 305 303 303 301 296 293 290 286 266 262
25 20 14 8 2 356 350 347 344 341 340 337 336 335 334 332 329 327 322 317 312 307 304 302 301 301 300 298 293 289 285 283 278
18 12 8 3 357 350 347 344 342 340 340 339 336 336 333 331 328 324 320 315 310 306 303 298 295 293 292 298 294 289 286 281 279
7 4 1 357 352 349 346 342 340 339 337 336 335 333 331 329 326 322 316 312 309 306 302 299 299 308 306 301 297 294 288 283 280
356 356 354 353 350 346 343 340 339 338 336 335 334 332 331 329 326 321 317 314 310 306 301 300 297 310 305 303 297 290 284 279 277
348 351 350 348 346 343 341 340 339 337 336 335 334 334 333 333 331 326 325 323 323 319 313 306 303 298 300 303 300 291 287 282 277
337 342 343 344 342 340 341 341 341 340 338 337 336 337 339 337 336 344 336 324 318 315 309 303 298 296 295 301 296 290 284 283 281
327 335 338 340 338 337 338 341 342 341 338 336 335 339 344 340 343 342 327 322 318 315 310 308 301 301 300 294 296 286 283 280 276
319 328 332 334 334 335 339 340 341 342 341 340 341 343 349 327 335 322 329 326 329 327 318 313 310 308 303 301 297 295 288 281 275
311 319 328 330 331 334 338 340 341 343 347 347 346 339 347 321 322 325 331 332 325 329 323 317 317 320 318 308 304 297 290 282 276
304 315 324 327 328 334 339 340 340 341 345 346 352 341 319 324 316 329 329 322 325 325 322 322 320 320 315 312 316 305 296 289 284
298 311 319 321 325 333 336 337 337 337 338 339 340 331 324 323 323 326 311 320 322 318 321 322 320 319 316 311 315 304 294 293 289
295 308 313 317 324 329 332 332 332 332 332 332 329 325 322 318 303 309 313 318 321 318 319 313 318 321 317 315 314 306 297 292 285